Stations météo

Publicité
Cherbourg, France (7024): Température de l'air & dewpoint: 03.04.2020 11:00:00 - 09.04.2020 11:00:00 (CEST)Cherbourg, France (7024): Température de l'air 5cm: 03.04.2020 11:00:00 - 09.04.2020 11:00:00 (CEST)Cherbourg, France (7024): Température de l'air -20cm & Température de l'air -100cm: 03.04.2020 11:00:00 - 09.04.2020 11:00:00 (CEST)Cherbourg, France (7024): Vitesse du vent & gusts: 03.04.2020 11:00:00 - 09.04.2020 11:00:00 (CEST)Cherbourg, France (7024): Direction du vent: 03.04.2020 11:00:00 - 09.04.2020 11:00:00 (CEST)Cherbourg, France (7024): reduced air pressure: 03.04.2020 11:00:00 - 09.04.2020 11:00:00 (CEST)Cherbourg, France (7024): visibility: 03.04.2020 11:00:00 - 09.04.2020 11:00:00 (CEST)Cherbourg, France (7024): Ensoleillement: 03.04.2020 11:00:00 - 09.04.2020 11:00:00 (CEST)Cherbourg, France (7024): Quantités de précipitations: 03.04.2020 11:00:00 - 09.04.2020 11:00:00 (CEST)
Date & Time tt [°C] td [°C] tt 5cm [°C] tt -20cm [°C] tt -100cm [°C] ff [km/h] ff [knt] fx [km/h] fx [knt] dd ppp [hPa] vv [km] sd [min] rr [mm]
09.04.2020 11:00:00 16,8 10,4 19,0 10,3 9,2 11 6 16 9 ESE 1023,4 6 60 0,0
09.04.2020 10:00:00 14,5 10,1 15,4 10,4 9,2 5 3 16 9 NNE 1023,4 3,6 60 0,0
09.04.2020 09:00:00 12,6 8,5 9,9 10,4 9,2 8 4 29 16 NNE 1023,1 4,8 44 0,0
09.04.2020 08:00:00 10,0 7,8 7,1 10,5 9,2 10 5 16 9 E 1022,9 2,8 0 0,0
09.04.2020 07:00:00 9,9 7,0 3,5 10,6 9,2 11 6 14 8 NE 1022,8 3,5 0 0,0
09.04.2020 06:00:00 9,1 7,0 4,6 10,6 9,2 4 2 13 7 N 1023,0 2,2 0 0,0
09.04.2020 05:00:00 10,6 6,7 3,6 10,7 9,2 11 6 13 7 NE 1022,8 6 0 0,0
09.04.2020 04:00:00 8,7 7,3 3,7 10,8 9,2 6 4 9 5 NE 1023,1 3,6 0 0,0
09.04.2020 03:00:00 8,8 6,1 5,5 10,9 9,2 7 4 12 7 NW 1023,7 10 0 0,0
09.04.2020 02:00:00 11,0 5,9 4,1 10,9 9,1 8 4 12 7 E 1023,6 11 0 0,0
09.04.2020 01:00:00 9,4 8,2 4,3 11,0 9,1 5 3 11 6 NNW 1024,1 3,0 0 0,0
09.04.2020 00:00:00 9,9 7,5 6,0 11,0 9,1 5 3 9 5 NNW 1023,9 5 0 0,0
08.04.2020 23:00:00 11,4 9,0 4,8 11,0 9,1 6 3 7 4 ESE 1023,8 7 0 0,0
08.04.2020 22:00:00 10,5 8,3 5,5 11,0 9,1 0 0 6 4 N 1023,6 5 0 0,0
08.04.2020 21:00:00 12,0 8,8 7,9 11,0 9,1 4 2 10 6 NNE 1023,3 7 13 0,0
08.04.2020 20:00:00 14,5 10,5 16,2 10,8 9,1 8 4 10 6 NNE 1022,8 7 60 0,0
08.04.2020 19:00:00 16,7 11,2 20,9 10,7 9,1 7 4 14 8 NE 1022,6 9 60 0,0
08.04.2020 18:00:00 18,7 12,2 24,3 10,5 9,1 9 5 16 9 NE 1022,3 14 60 0,0
08.04.2020 17:00:00 19,3 11,3 26,2 10,4 9,1 10 5 16 9 NE 1022,6 12 60 0,0
08.04.2020 16:00:00 19,1 11,4 19,9 10,2 9,1 9 5 16 9 NE 1022,8 15 32 0,0
08.04.2020 15:00:00 19,1 12,4 23,2 10,1 9,1 8 5 15 8 NE 1023,1 16 27 0,0
08.04.2020 14:00:00 17,9 11,9 23,9 10,0 9,1 8 4 11 6 NNE 1023,6 14 17 0,0
08.04.2020 13:00:00 16,8 10,2 21,7 9,8 9,1 5 3 12 6 N 1023,8 16 5 0,0
08.04.2020 12:00:00 17,2 10,3 20,3 9,8 9,1 6 3 10 6 NNW 1023,9 18 19 0,0
08.04.2020 11:00:00 17,7 10,6 18,4 9,8 9,1 6 4 9 5 WNW 1023,8 18 57 0,0
08.04.2020 10:00:00 15,1 10,1 14,6 9,8 9,1 4 2 7 4 WNW 1023,9 16 0 0,0
08.04.2020 09:00:00 12,7 10,2 11,4 9,8 9,0 4 2 8 4 W 1024,0 16 0 0,0
08.04.2020 08:00:00 12,3 8,8 9,4 9,8 9,0 5 3 18 10 NE 1023,7 17 0 0,0
08.04.2020 07:00:00 11,0 8,0 9,3 9,8 9,0 3 2 7 4 SW 1023,5 13 0 0,0
08.04.2020 06:00:00 10,5 7,7 9,6 9,8 9,0 4 2 11 6 SSE 1023,8 10 0 0,0
08.04.2020 05:00:00 10,7 7,6 9,4 9,9 9,0 8 4 10 5 SE 1023,9 11 0 0,0
08.04.2020 04:00:00 10,4 7,1 8,9 9,9 9,0 4 2 9 5 ENE 1024,6 11 0 0,0
08.04.2020 03:00:00 11,0 6,9 10,3 9,9 9,0 8 4 17 9 E 1025,0 13 0 0,0
08.04.2020 02:00:00 11,2 6,5 10,4 9,9 9,0 9 5 16 9 E 1025,4 19 0 0,0
08.04.2020 01:00:00 11,0 6,3 10,0 9,9 9,0 13 7 20 11 E 1025,6 20 0 0,0
08.04.2020 00:00:00 10,4 6,5 9,1 10,0 9,0 13 7 21 11 E 1025,8 48 0 0,0
07.04.2020 23:00:00 10,5 5,9 9,7 10,0 9,0 13 7 21 12 E 1026,0 57 0 0,0
07.04.2020 22:00:00 10,4 5,6 8,9 10,0 9,0 13 7 19 10 ENE 1026,3 46 0 0,0
07.04.2020 21:00:00 10,1 4,9 9,1 10,0 9,0 12 7 24 13 ENE 1026,2 59 11 0,0
07.04.2020 20:00:00 11,5 5,4 11,5 9,9 9,0 16 9 24 13 ENE 1026,1 57 44 0,0
07.04.2020 19:00:00 12,7 6,3 13,0 9,9 9,0 15 8 26 14 ENE 1026,1 20 10 0,0
07.04.2020 18:00:00 12,3 5,7 13,2 9,8 9,0 16 9 27 15 E 1026,3 49 0 0,0
07.04.2020 17:00:00 12,9 5,6 14,0 9,7 9,0 18 10 30 16 E 1026,7 20 0 0,0
07.04.2020 16:00:00 13,2 4,9 14,3 9,7 9,0 20 11 32 17 E 1027,1 48 0 0,0
07.04.2020 15:00:00 13,4 5,8 15,1 9,6 8,9 23 13 32 18 E 1027,6 50 9 0,0
07.04.2020 14:00:00 13,3 6,2 15,1 9,5 8,9 21 11 33 18 E 1027,8 19 11 0,0
07.04.2020 13:00:00 14,2 7,7 15,6 9,5 8,9 21 11 30 16 E 1028,1 18 29 0,0
07.04.2020 12:00:00 13,3 7,3 14,3 9,5 8,9 20 11 30 16 E 1028,7 58 17 0,0
07.04.2020 11:00:00 12,2 4,9 11,7 9,5 8,9 21 11 29 15 E 1028,6 52 13 0,0
07.04.2020 10:00:00 10,6 6,3 10,6 9,5 8,9 19 10 28 15 E 1028,9 20 0 0,0
07.04.2020 09:00:00 9,7 7,3 7,8 9,6 8,9 14 8 21 11 ESE 1029,1 17 0 0,0
07.04.2020 08:00:00 8,5 6,3 7,3 9,6 8,9 10 6 18 10 E 1028,9 19 0 0,0
07.04.2020 07:00:00 8,0 7,2 6,3 9,7 8,9 13 7 18 10 E 1028,8 9 0 0,0
07.04.2020 06:00:00 6,8 5,6 4,4 9,8 8,9 11 6 18 10 E 1028,8 15 0 0,0
07.04.2020 05:00:00 5,9 5,5 0,6 9,9 8,9 9 5 11 6 E 1028,7 19 0 0,0
07.04.2020 04:00:00 5,0 4,4 -0,2 10,0 8,9 5 3 8 4 SSE 1028,6 0,4 0 0,0
07.04.2020 03:00:00 6,9 6,6 -0,2 10,1 8,9 7 4 10 5 NE 1028,3 11 0 0,0
07.04.2020 02:00:00 6,8 6,5 -1,3 10,2 8,9 8 5 9 5 N 1028,0 12 0 0,0
07.04.2020 01:00:00 7,3 7,0 -1,0 10,3 8,8 3 2 10 5 N 1027,9 0,7 0 0,0
07.04.2020 00:00:00 6,3 5,7 -0,8 10,4 8,8 4 2 6 3 NW 1027,4 0,6 0 0,0
06.04.2020 23:00:00 6,7 6,0 0,0 10,4 8,8 0 0 5 3 N 1027,3 1,7 0 0,0
06.04.2020 22:00:00 7,7 6,8 0,7 10,4 8,8 3 2 4 2 SE 1026,6 10 0 0,0
06.04.2020 21:00:00 9,1 7,7 4,5 10,4 8,8 4 2 12 7 NNW 1025,6 10 10 0,0
06.04.2020 20:00:00 11,6 8,3 12,7 10,3 8,8 9 5 19 10 WNW 1024,6 14 60 0,0
06.04.2020 19:00:00 12,2 8,8 15,1 10,2 8,8 12 7 22 12 WNW 1024,0 15 58 0,0
06.04.2020 18:00:00 12,9 10,1 17,8 10,1 8,8 13 7 25 13 NW 1023,1 11 60 0,0
06.04.2020 17:00:00 13,9 9,9 15,0 10,0 8,8 15 8 24 13 WNW 1022,5 17 55 0,0
06.04.2020 16:00:00 13,4 8,7 14,5 9,9 8,8 14 8 27 15 WNW 1022,3 18 42 0,0
06.04.2020 15:00:00 12,8 8,9 14,0 9,8 8,8 19 10 29 15 WNW 1021,6 19 26 0,0
06.04.2020 14:00:00 13,9 8,7 15,7 9,8 8,8 18 10 29 16 WNW 1020,6 18 42 0,0
06.04.2020 13:00:00 13,2 9,1 14,6 9,7 8,7 17 9 36 19 WNW 1019,6 18 32 0,0
06.04.2020 12:00:00 13,0 8,1 13,0 9,7 8,7 24 13 36 20 W 1018,8 19 23 0,0
06.04.2020 11:00:00 12,0 9,9 11,0 9,7 8,7 19 11 30 16 W 1017,6 17 7 0,0
06.04.2020 10:00:00 10,7 9,8 10,0 9,7 8,7 17 9 24 13 WSW 1016,5 17 0 0,0
06.04.2020 09:00:00 10,2 9,4 9,5 9,7 8,7 9 5 24 13 W 1015,5 44 0 0,2
06.04.2020 08:00:00 10,3 9,1 10,0 9,7 8,7 17 9 35 19 W 1014,3 15 0 0,0
06.04.2020 07:00:00 12,2 10,1 11,6 9,8 8,7 21 11 31 17 SSW 1012,8 18 0 0,0
06.04.2020 06:00:00 12,0 9,4 9,9 9,8 8,7 16 9 25 14 SSW 1012,3 60 0 0,0
06.04.2020 05:00:00 11,7 8,2 10,0 9,8 8,7 14 8 22 12 SSW 1011,7 28 0 0,0
06.04.2020 04:00:00 12,3 7,2 11,4 9,8 8,7 13 7 22 12 S 1011,7 59 0 0,0
06.04.2020 03:00:00 12,7 6,9 12,0 9,9 8,7 13 7 25 14 S 1011,4 60 0 0,0
06.04.2020 02:00:00 13,3 6,6 12,0 9,9 8,7 14 8 23 13 S 1011,4 52 0 0,0
06.04.2020 01:00:00 13,9 6,3 12,9 9,9 8,7 17 9 31 17 S 1011,3 60 0 0,0
06.04.2020 00:00:00 14,5 6,3 13,3 9,9 8,7 21 11 36 19 S 1010,9 60 0 0,0
05.04.2020 23:00:00 14,9 6,7 13,5 9,9 8,7 23 12 34 18 S 1011,0 60 0 0,0
05.04.2020 22:00:00 15,5 7,3 14,2 9,8 8,7 18 10 34 18 S 1011,1 60 0 0,0
05.04.2020 21:00:00 16,9 7,3 15,4 9,8 8,7 19 10 33 18 S 1010,5 60 8 0,0
05.04.2020 20:00:00 18,0 6,8 17,0 9,7 8,6 21 11 35 19 S 1009,8 60 42 0,0
05.04.2020 19:00:00 18,8 7,9 18,7 9,6 8,6 22 12 43 23 SSE 1009,6 58 13 0,0
05.04.2020 18:00:00 20,4 8,4 21,4 9,4 8,6 24 13 50 27 S 1009,7 55 40 0,0
05.04.2020 17:00:00 20,0 7,4 21,3 9,2 8,6 27 14 49 26 S 1010,1 56 16 0,0
05.04.2020 16:00:00 20,9 8,2 23,7 9,1 8,6 27 15 52 28 SSE 1010,6 20 60 0,0
05.04.2020 15:00:00 21,4 7,2 24,3 9,0 8,6 29 16 47 26 S 1010,8 20 60 0,0
05.04.2020 14:00:00 20,8 7,4 22,6 8,9 8,6 26 14 49 26 S 1011,4 19 60 0,0
05.04.2020 13:00:00 18,8 6,3 22,3 8,8 8,6 25 14 39 21 SSE 1012,0 20 60 0,0
05.04.2020 12:00:00 17,6 5,8 20,4 8,7 8,6 22 12 42 23 SSE 1012,7 50 60 0,0
05.04.2020 11:00:00 15,5 5,1 17,0 8,8 8,6 20 11 35 19 S 1013,2 20 60 0,0
05.04.2020 10:00:00 12,5 4,7 12,4 8,8 8,6 17 9 28 15 SSE 1013,7 20 60 0,0
05.04.2020 09:00:00 9,6 4,6 7,5 8,9 8,6 15 8 25 13 SE 1014,1 20 57 0,0
05.04.2020 08:00:00 7,8 3,6 6,0 8,9 8,6 14 7 22 12 SSE 1014,0 44 0 0,0
05.04.2020 07:00:00 7,3 3,2 5,8 8,9 8,5 16 8 23 13 SSE 1014,1 53 0 0,0
05.04.2020 06:00:00 7,1 3,2 6,0 9,0 8,6 16 9 26 14 SSE 1014,4 52 0 0,0
05.04.2020 05:00:00 7,4 3,1 6,4 9,1 8,6 20 11 29 16 SE 1014,7 52 0 0,0
05.04.2020 04:00:00 8,1 3,0 7,0 9,1 8,6 20 11 30 16 SE 1015,4 58 0 0,0
05.04.2020 03:00:00 8,9 2,9 7,9 9,2 8,6 20 11 36 19 SE 1015,9 58 0 0,0
05.04.2020 02:00:00 9,9 3,0 8,9 9,2 8,6 23 13 38 20 SE 1016,4 59 0 0,0
05.04.2020 01:00:00 10,2 3,5 8,8 9,3 8,6 21 11 32 17 SE 1016,7 56 0 0,0
05.04.2020 00:00:00 10,0 3,9 8,3 9,3 8,6 18 10 27 14 SE 1016,8 47 0 0,0
04.04.2020 23:00:00 9,2 5,0 8,2 9,3 8,6 14 7 26 14 SE 1016,9 40 0 0,0
04.04.2020 22:00:00 9,5 5,7 8,0 9,3 8,5 16 8 26 14 SE 1017,2 37 0 0,0
04.04.2020 21:00:00 9,5 5,3 8,3 9,2 8,5 16 8 29 15 ESE 1016,9 43 7 0,0
04.04.2020 20:00:00 10,7 5,7 11,3 9,1 8,5 20 11 34 18 ESE 1017,1 20 60 0,0
04.04.2020 19:00:00 12,1 6,4 14,3 9,1 8,5 19 11 33 18 E 1017,2 57 60 0,0
04.04.2020 18:00:00 13,6 6,2 16,6 8,9 8,5 21 11 33 18 E 1017,5 19 60 0,0
04.04.2020 17:00:00 14,2 6,0 18,1 8,8 8,5 22 12 31 17 E 1018,0 20 60 0,0
04.04.2020 16:00:00 15,0 7,0 18,7 8,7 8,5 19 10 33 18 ESE 1018,5 60 60 0,0
04.04.2020 15:00:00 14,7 5,5 18,2 8,5 8,5 19 11 34 18 ESE 1018,9 20 60 0,0
04.04.2020 14:00:00 14,2 6,8 17,0 8,4 8,5 19 10 31 17 ESE 1019,4 57 60 0,0
04.04.2020 13:00:00 14,3 6,1 18,0 8,3 8,5 18 10 30 16 SSE 1020,0 40 60 0,0
04.04.2020 12:00:00 13,6 6,7 16,9 8,3 8,5 14 8 26 14 SE 1020,3 19 60 0,0
04.04.2020 11:00:00 11,8 6,5 12,5 8,3 8,5 16 8 25 14 SSE 1020,4 46 60 0,0
04.04.2020 10:00:00 9,2 5,9 9,5 8,4 8,5 17 9 24 13 SSE 1020,7 20 60 0,0
04.04.2020 09:00:00 7,7 6,5 4,8 8,4 8,5 14 7 20 11 SSE 1020,7 19 60 0,0
04.04.2020 08:00:00 5,2 4,8 3,7 8,5 8,5 14 7 19 10 SSE 1020,5 12 9 0,0
04.04.2020 07:00:00 4,9 4,5 3,3 8,6 8,5 15 8 19 10 SSE 1020,3 15 0 0,0
04.04.2020 06:00:00 4,9 4,6 2,9 8,6 8,5 14 8 19 10 S 1020,4 13 0 0,0
04.04.2020 05:00:00 4,9 4,6 3,2 8,7 8,4 13 7 18 10 SSE 1020,7 14 0 0,0
04.04.2020 04:00:00 4,6 4,3 3,2 8,7 8,5 8 4 14 7 S 1021,1 0,3 0 0,0
04.04.2020 03:00:00 5,5 5,2 4,5 8,8 8,5 11 6 16 9 SSE 1021,1 3,4 0 0,0
04.04.2020 02:00:00 6,0 5,7 5,6 8,8 8,5 12 6 16 9 SSE 1021,1 0,3 0 0,0
04.04.2020 01:00:00 6,8 6,5 2,6 8,9 8,4 9 5 13 7 SSE 1021,0 0,1 0 0,0
04.04.2020 00:00:00 5,0 4,6 -1,2 8,9 8,4 8 4 11 6 SSE 1021,0 5 0 0,0
03.04.2020 23:00:00 5,7 5,0 -1,2 9,0 8,5 4 2 6 4 W 1020,9 3,1 0 0,0
03.04.2020 22:00:00 6,3 5,4 0,2 9,0 8,4 5 3 10 6 W 1020,7 13 0 0,0
03.04.2020 21:00:00 7,7 6,8 4,8 8,9 8,4 5 3 14 8 W 1020,3 9 5 0,0
03.04.2020 20:00:00 9,0 7,1 8,8 8,9 8,4 11 6 17 9 WNW 1020,2 15 43 0,0
03.04.2020 19:00:00 9,5 7,3 10,6 8,8 8,4 10 6 20 11 WNW 1020,1 17 33 0,0
03.04.2020 18:00:00 9,9 7,7 11,7 8,7 8,4 14 7 27 15 WNW 1020,1 15 14 0,0
03.04.2020 17:00:00 9,6 7,7 11,9 8,5 8,4 18 10 28 15 NW 1020,2 14 7 0,0
03.04.2020 16:00:00 10,0 7,6 12,5 8,4 8,4 16 9 25 13 WNW 1020,3 16 14 0,0
03.04.2020 15:00:00 11,5 8,4 15,2 8,3 8,4 14 8 26 14 WNW 1020,1 16 49 0,0
03.04.2020 14:00:00 10,5 7,4 14,9 8,2 8,4 18 10 32 17 WNW 1020,1 17 55 0,0
03.04.2020 13:00:00 10,3 7,7 14,5 8,1 8,4 21 12 30 16 WNW 1020,1 15 53 0,0
03.04.2020 12:00:00 10,5 7,7 13,8 8,1 8,4 22 12 32 17 WNW 1019,9 16 54 0,0
03.04.2020 11:00:00 9,9 7,3 10,9 8,0 8,4 22 12 31 17 WNW 1019,5 16 53 0,0

tt = Température de l'air
td = dewpoint
tt 5cm = Température de l'air 5cm
tt -20cm = Température de l'air -20cm
tt -100cm = Température de l'air -100cm
ff = Vitesse du vent
fx = gusts
dd = Direction du vent
ppp = reduced air pressure
vv = visibility
sd = Ensoleillement
rr = Quantités de précipitations

stations d'obs. à proximité